CW3699 Weather Reports


Display with metric or nautical units.
time (UTC)temp
F
wind
direction
speed
MPH
gust
MPH
rain 1hr
in
rain 24hr
in
rain mn
in
humidity
%
barometer
mb
20260504040406 39 153 1.0 3.0 0.00 0.21 0.00 95 1003.2
20260504035908 39 176 2.0 3.0 0.00 0.21 0.21 95 1003.3
20260504034909 39 164 1.0 2.0 0.00 0.21 0.21 95 1003.3
20260504034406 40 155 2.0 2.0 0.00 0.21 0.21 95 1003.4
20260504033905 40 216 2.0 2.0 0.00 0.21 0.21 95 1003.4
20260504032907 40 224 1.0 3.0 0.00 0.21 0.21 95 1003.6
20260504032407 40 228 1.0 2.0 0.00 0.21 0.21 95 1003.7
20260504031906 41 249 1.0 2.0 0.00 0.21 0.21 95 1003.8
20260504031405 41 329 1.0 2.0 0.00 0.21 0.21 95 1003.8
20260504030906 41 333 1.0 2.0 0.00 0.21 0.21 96 1003.8
20260504025905 41 326 2.0 3.0 0.00 0.21 0.21 96 1003.9
20260504025405 41 263 1.0 2.0 0.00 0.21 0.21 96 1003.8
20260504024907 41 160 0.0 2.0 0.00 0.21 0.21 95 1003.8
20260504024405 41 187 1.0 2.0 0.00 0.21 0.21 95 1003.9
20260504023907 42 157 1.0 2.0 0.00 0.21 0.21 95 1003.9
20260504023407 42 219 1.0 2.0 0.00 0.21 0.21 95 1003.9
20260504022905 42 218 1.0 2.0 0.00 0.21 0.21 95 1003.8
20260504022406 42 176 1.0 2.0 0.00 0.21 0.21 96 1003.7
20260504021906 42 162 1.0 2.0 0.00 0.21 0.21 96 1003.7
20260504021405 43 157 1.0 2.0 0.00 0.21 0.21 96 1003.8
20260504020907 43 213 0.0 1.0 0.00 0.21 0.21 96 1003.7
20260504020405 43 61 1.0 2.0 0.00 0.21 0.21 96 1003.7
20260504015905 43 162 1.0 2.0 0.00 0.21 0.21 96 1003.7
20260504015405 43 27 1.0 2.0 0.00 0.21 0.21 96 1003.6
20260504014907 43 28 1.0 2.0 0.00 0.21 0.21 96 1003.6
20260504014406 43 102 0.0 2.0 0.00 0.21 0.21 95 1003.5
20260504013905 43 86 1.0 2.0 0.00 0.21 0.21 96 1003.5
20260504013405 43 147 1.0 3.0 0.00 0.21 0.21 96 1003.5
20260504012906 43 138 1.0 3.0 0.00 0.21 0.21 96 1003.4
20260504012405 43 85 2.0 6.0 0.00 0.21 0.21 95 1003.6
20260504011906 43 87 2.0 6.0 0.00 0.21 0.21 95 1003.6
20260504011406 43 73 0.0 1.0 0.00 0.21 0.21 96 1003.6
20260504010905 43 79 0.0 1.0 0.00 0.21 0.21 95 1003.5
20260504010405 43 50 0.0 1.0 0.00 0.21 0.21 95 1003.5
20260504005906 43 90 0.0 2.0 0.00 0.21 0.21 96 1003.4
20260504004906 43 100 1.0 2.0 0.00 0.21 0.21 96 1003.4
20260504004405 43 123 1.0 2.0 0.00 0.21 0.21 96 1003.1
20260504003907 43 175 2.0 3.0 0.00 0.21 0.21 95 1003.1
20260504003406 43 154 3.0 3.0 0.01 0.21 0.21 95 1003.3
20260504002906 43 167 2.0 3.0 0.01 0.21 0.21 95 1003.4
20260504001907 42 158 3.0 3.0 0.03 0.21 0.21 95 1003.4
20260504000906 42 161 1.0 3.0 0.07 0.21 0.21 95 1003.7
20260504000405 42 170 2.0 3.0 0.09 0.21 0.21 95 1003.7
20260503235406 41 170 1.0 3.0 0.13 0.21 0.21 95 1003.9
20260503234905 41 155 1.0 3.0 0.13 0.21 0.21 95 1003.9
20260503234407 41 141 2.0 3.0 0.14 0.21 0.21 94 1003.9
20260503233906 40 107 1.0 3.0 0.14 0.21 0.21 94 1004.0
20260503233406 40 149 2.0 3.0 0.13 0.20 0.20 93 1004.1
20260503231906 40 24 2.0 3.0 0.11 0.18 0.18 92 1004.5
20260503230904 41 82 2.0 3.0 0.07 0.14 0.14 92 1004.7
20260503230405 41 19 2.0 3.0 0.05 0.12 0.12 92 1005.0
20260503225905 41 251 0.0 3.0 0.03 0.10 0.10 92 1004.5
20260503224906 41 27 4.0 9.0 0.01 0.08 0.08 90 1003.9
20260503224406 42 34 3.0 6.0 0.00 0.07 0.07 88 1003.4
20260503223905 42 57 3.0 6.0 0.00 0.07 0.07 87 1003.0
20260503223407 42 60 2.0 6.0 0.00 0.07 0.07 86 1003.0
20260503222906 43 121 2.0 5.0 0.00 0.07 0.07 85 1002.9
20260503222405 43 70 3.0 6.0 0.00 0.07 0.07 84 1002.8
20260503221906 44 59 3.0 6.0 0.00 0.07 0.07 84 1002.8
20260503221406 44 43 2.0 6.0 0.00 0.07 0.07 84 1002.8
20260503220906 44 49 2.0 7.0 0.00 0.07 0.07 85 1002.8
20260503220406 44 127 2.0 5.0 0.00 0.07 0.07 85 1002.9
20260503215905 44 45 1.0 3.0 0.00 0.07 0.07 85 1002.9
20260503215406 44 74 2.0 3.0 0.00 0.07 0.07 84 1003.0
20260503214406 44 60 3.0 6.0 0.00 0.07 0.07 84 1003.1
20260503213905 44 89 3.0 6.0 0.00 0.07 0.07 83 1003.1
20260503213406 44 39 3.0 5.0 0.00 0.07 0.07 84 1003.1
20260503212905 44 340 1.0 3.0 0.00 0.07 0.07 84 1003.1
20260503211906 43 88 2.0 5.0 0.00 0.07 0.07 84 1003.1
20260503211406 43 122 3.0 9.0 0.00 0.07 0.07 84 1003.1
20260503210905 43 80 4.0 9.0 0.00 0.07 0.07 83 1003.4
20260503210404 44 9 3.0 7.0 0.00 0.07 0.07 82 1003.4
20260503205906 44 54 5.0 7.0 0.00 0.07 0.07 82 1003.4
20260503205406 45 51 3.0 7.0 0.00 0.07 0.07 81 1003.5
20260503204908 45 67 3.0 8.0 0.00 0.07 0.07 81 1003.5
20260503203407 45 57 4.0 6.0 0.00 0.07 0.07 81 1003.8
20260503202907 45 66 5.0 8.0 0.00 0.07 0.07 82 1003.9
20260503202404 44 68 6.0 8.0 0.00 0.07 0.07 82 1003.9
20260503201909 44 75 6.0 12.0 0.00 0.07 0.07 81 1004.1
20260503200909 45 69 4.0 10.0 0.00 0.07 0.07 82 1004.2
20260503200405 45 60 5.0 12.0 0.00 0.07 0.07 81 1004.3
20260503195906 45 57 6.0 8.0 0.00 0.07 0.07 80 1004.2
20260503195407 45 82 5.0 9.0 0.00 0.07 0.07 79 1004.3
20260503194905 46 54 4.0 8.0 0.00 0.07 0.07 80 1004.4
20260503193905 45 95 5.0 9.0 0.00 0.07 0.07 80 1004.6
20260503192906 46 71 5.0 12.0 0.00 0.07 0.07 80 1004.8
20260503191905 46 62 4.0 8.0 0.00 0.07 0.07 79 1004.9
20260503191405 46 64 4.0 8.0 0.00 0.07 0.07 79 1005.1
20260503190906 47 62 5.0 9.0 0.00 0.07 0.07 80 1005.1
20260503190405 47 77 5.0 9.0 0.00 0.07 0.07 81 1005.2
20260503185906 46 61 5.0 7.0 0.00 0.07 0.07 82 1005.3
20260503185405 46 65 5.0 9.0 0.00 0.07 0.07 83 1005.3
20260503184908 45 67 5.0 9.0 0.00 0.07 0.07 85 1005.3
20260503184405 45 50 5.0 8.0 0.00 0.07 0.07 83 1005.4
20260503183906 45 64 5.0 8.0 0.00 0.07 0.07 82 1005.4
20260503183406 46 63 5.0 9.0 0.00 0.07 0.07 81 1005.4
20260503182904 46 53 4.0 7.0 0.00 0.07 0.07 83 1005.5
20260503182405 46 60 3.0 5.0 0.00 0.07 0.07 84 1005.6
20260503181906 46 54 3.0 6.0 0.00 0.07 0.07 84 1005.7
20260503181405 45 53 3.0 7.0 0.00 0.07 0.07 85 1005.7
20260503180906 45 65 4.0 9.0 0.00 0.07 0.07 84 1005.8
20260503175906 46 73 5.0 10.0 0.01 0.07 0.07 82 1005.8
20260503175405 47 65 5.0 9.0 0.01 0.07 0.07 85 1005.8
20260503174908 47 34 5.0 7.0 0.01 0.07 0.07 88 1005.8
20260503173906 47 62 3.0 9.0 0.01 0.07 0.07 89 1006.0
20260503173408 47 129 3.0 6.0 0.01 0.07 0.07 93 1006.2
20260503172904 46 59 2.0 6.0 0.01 0.07 0.07 95 1006.2
20260503172405 45 157 3.0 5.0 0.01 0.07 0.07 95 1006.2
20260503171905 44 159 2.0 5.0 0.01 0.07 0.07 95 1006.3
20260503170905 42 101 3.0 6.0 0.01 0.07 0.07 94 1006.4
20260503150906 38 147 1.0 3.0 0.01 0.04 0.04 91 1007.7
20260503150405 38 162 1.0 3.0 0.01 0.04 0.04 91 1007.7
20260503130906 40 102 2.0 3.0 0.00 0.00 0.00 78 1008.0
20260503130405 40 109 1.0 3.0 0.00 0.00 0.00 74 1008.1
20260503110404 37 167 2.0 3.0 0.00 0.00 0.00 68 1008.6
20260503081406 31 171 2.0 3.0 0.00 0.00 0.00 81 1010.7
20260503080404 31 161 2.0 3.0 0.00 0.00 0.00 81 1010.9
20260503072905 30 166 2.0 5.0 0.00 0.00 0.00 82 1011.3
20260503072405 30 172 2.0 5.0 0.00 0.00 0.00 82 1011.4
20260503071904 30 180 2.0 3.0 0.00 0.00 0.00 82 1011.4
20260503070905 30 177 3.0 3.0 0.00 0.00 0.00 81 1011.6
20260503054905 31 174 1.0 3.0 0.00 0.00 0.00 79 1012.6
20260503054405 31 169 1.0 3.0 0.00 0.00 0.00 79 1012.6
20260503053904 31 162 1.0 3.0 0.00 0.00 0.00 79 1012.6
20260503052905 31 149 1.0 3.0 0.00 0.00 0.00 79 1012.7
20260503052405 31 155 1.0 3.0 0.00 0.00 0.00 78 1012.7
20260503051905 31 147 1.0 3.0 0.00 0.00 0.00 78 1012.7
20260503051405 31 167 2.0 3.0 0.00 0.00 0.00 78 1012.7
20260503050905 31 163 2.0 3.0 0.00 0.00 0.00 78 1012.7
20260503050404 31 171 2.0 5.0 0.00 0.00 0.00 77 1012.8
20260503045913 31 185 2.0 3.0 0.00 0.00 0.00 77 1012.9
20260503045413 31 169 2.0 3.0 0.00 0.00 0.00 77 1012.9
20260503044912 31 173 2.0 3.0 0.00 0.00 0.00 77 1012.9
20260503044412 31 178 2.0 5.0 0.00 0.00 0.00 78 1013.0
20260503043913 31 184 2.0 3.0 0.00 0.00 0.00 77 1013.0
20260503043414 31 172 2.0 3.0 0.00 0.00 0.00 77 1013.1
20260503042914 31 172 1.0 3.0 0.00 0.00 0.00 77 1013.2
20260503041914 31 162 2.0 3.0 0.00 0.00 0.00 77 1013.2
20260503040912 32 171 1.0 3.0 0.00 0.00 0.00 78 1013.3